Visalia, CA

4:05 AM PDT on October 16, 2019 (GMT -0700)
Visalia Municipal

Weather History for KVIS - August, 2019

Change the Weather History Date:

Monday, August 26, 2019

  Actual Average Record
Temperature  
Mean Temperature 83 °F -  
Max Temperature 98 °F 91 °F 109 °F (1931)
Min Temperature 69 °F 61 °F 49 °F (1954)
Cooling Degree Days 18    
Growing Degree Days 33 (Base 50)    
Moisture  
Dew Point 62 °F    
Average Humidity 52    
Maximum Humidity 78    
Minimum Humidity 31    
Precipitation  
Precipitation 0.00 in - - ()
Sea Level Pressure  
Sea Level Pressure 29.85 in    
Wind  
Wind Speed 5 mph (West)    
Max Wind Speed 12 mph    
Max Gust Speed -    
Visibility 10 miles    
Events      
Averages and records for this station are not official NWS values.
T = Trace of Precipitation, MM = Missing Value Source: NWS Daily Summary

Daily Weather History Graph

Daily Weather History Graph

Search for Another Location

Airport or City:

Astronomy

Aug. 26, 2019 Rise Set
Actual Time 6:24 AM PDT 7:33 PM PDT
Civil Twilight 5:57 AM PDT 8:00 PM PDT
Nautical Twilight 5:25 AM PDT 8:32 PM PDT
Astronomical Twilight 4:52 AM PDT 9:05 PM PDT
Moon 2:00 AM PDT (8/26) 4:55 PM PDT (8/26)
Length of Visible Light 14h 02m
Length of Day
13h 09m
Waning Crescent, 18% of the Moon is Illuminated
Aug 26
Waning Crescent
Aug 30
New
Sep 5
First Quarter
Sep 13
Full
Sep 21
Last Quarter

Hourly Weather History & Observations

Time (PDT) Temp. Heat Index Dew Point Humidity Pressure Visibility Wind Dir Wind Speed Gust Speed Precip Events Conditions
12:56 AM 79.0 °F - 63.0 °F 58% 29.88 in 10.0 mi NW 6.9 mph - N/A   Clear
1:56 AM 78.1 °F - 61.0 °F 56% 29.88 in 10.0 mi NW 6.9 mph - N/A   Clear
2:56 AM 78.1 °F - 57.9 °F 50% 29.87 in 10.0 mi NW 11.5 mph - N/A   Clear
3:56 AM 77.0 °F - 57.9 °F 52% 29.87 in 10.0 mi NNW 8.1 mph - N/A   Clear
4:56 AM 75.0 °F - 59.0 °F 57% 29.87 in 10.0 mi North 3.5 mph - N/A   Clear
5:56 AM 75.0 °F - 60.1 °F 60% 29.87 in 10.0 mi Calm Calm - N/A   Clear
6:41 AM 69.8 °F - 62.6 °F 78% 29.88 in 2.5 mi Calm Calm - N/A   Haze
6:48 AM 69.8 °F - 62.6 °F 78% 29.88 in 10.0 mi South 3.5 mph - N/A   Clear
6:56 AM 70.0 °F - 62.1 °F 76% 29.89 in 10.0 mi Calm Calm - N/A   Clear
7:56 AM 73.9 °F - 62.1 °F 66% 29.91 in 10.0 mi SSW 3.5 mph - N/A   Clear
8:56 AM 78.1 °F - 60.1 °F 54% 29.91 in 10.0 mi SSW 3.5 mph - N/A   Clear
9:56 AM 82.0 °F 82.4 °F 60.1 °F 47% 29.90 in 10.0 mi South 5.8 mph - N/A   Clear
10:56 AM 84.9 °F 84.8 °F 60.1 °F 43% 29.90 in 10.0 mi SSW 6.9 mph - N/A   Clear
11:56 AM 89.1 °F 88.8 °F 60.1 °F 38% 29.88 in 10.0 mi West 8.1 mph - N/A   Clear
12:56 PM 93.0 °F 92.3 °F 59.0 °F 32% 29.86 in 10.0 mi Variable 6.9 mph - N/A   Clear
1:56 PM 95.0 °F 94.8 °F 60.1 °F 31% 29.84 in 10.0 mi West 3.5 mph - N/A   Clear
2:56 PM 95.0 °F 95.6 °F 62.1 °F 33% 29.81 in 10.0 mi WNW 8.1 mph - N/A   Clear
3:56 PM 97.0 °F 97.8 °F 62.1 °F 31% 29.80 in 10.0 mi Variable 6.9 mph - N/A   Clear
4:56 PM 97.0 °F 98.3 °F 63.0 °F 32% 29.78 in 10.0 mi West 8.1 mph - N/A   Clear
5:56 PM 95.0 °F 97.0 °F 64.0 °F 36% 29.78 in 10.0 mi West 6.9 mph - N/A   Clear
6:56 PM 93.9 °F 96.1 °F 64.9 °F 38% 29.77 in 10.0 mi West 5.8 mph - N/A   Clear
7:56 PM 89.1 °F 92.1 °F 66.9 °F 48% 29.78 in 10.0 mi WSW 3.5 mph - N/A   Clear
8:56 PM 86.0 °F 89.4 °F 68.0 °F 55% 29.79 in 10.0 mi Calm Calm - N/A   Clear
9:56 PM 84.0 °F 87.8 °F 69.1 °F 61% 29.80 in 10.0 mi WSW 3.5 mph - N/A   Clear
10:56 PM 82.0 °F 84.9 °F 68.0 °F 62% 29.80 in 10.0 mi Calm Calm - N/A   Clear
11:56 PM 79.0 °F - 68.0 °F 69% 29.80 in 10.0 mi Calm Calm - N/A   Clear